[[{"header":{"parameterUnit":"m.s-1","parameterCategory":1,"la1":30.2991,"la2":30.254,"lo1":-89.0895,"lo2":-89.0444,"dy":0.0017,"dx":0.0017,"nx":28,"ny":28,"refTime":"2025-05-18T21:00:00:Z","depth":0,"parameterNumber":2,"parameterNumberName":"U-component_of_WINDS"},"data":[0,0,0,0,0,0,0,0,0,0,0,0,0,0,0,0,0,0,0,0,0,0,0,0,0,0,0,0,0,0,0,0,0,0,0,0,0,0,0,0,0,0,0,0,0,0,0,0,0,0,0,0,0,0,0,0,0,0,1.1341,1.1341,0,1.1374,1.1374,1.1374,1.1338,1.1337,1.1336,1.1334,1.1371,1.1373,1.1376,0,0,0,0,0,0,0,0,0,0,0,0,0,1.125,1.1252,1.1341,1.1341,1.1341,1.1374,1.1374,1.1375,1.1339,1.1337,1.1335,1.1334,1.137,1.1373,1.1376,0,0,0,0,0,0,0,0,0,0,0,0,0,1.1287,1.1253,1.1341,1.1327,1.1327,1.1374,1.1374,1.1375,1.1339,1.1337,1.1335,1.1333,1.1369,1.1373,1.1376,1.1439,0,0,1.1386,1.1388,0,0,0,0,0,0,0,0,1.1285,1.129,1.1329,1.1328,1.1328,1.135,1.1356,1.1396,1.134,1.1334,1.1334,1.1332,1.1366,1.1369,1.138,1.144,1.1442,1.1387,1.1389,1.139,1.1391,0,0,0,0,0,0,0,1.1283,1.1289,1.1354,1.133,1.1329,1.1321,1.1324,1.1363,1.1361,1.1335,1.1332,1.1336,1.1365,1.1377,1.1381,1.1442,1.1387,1.139,1.1392,1.1393,1.1557,1.156,0,0,0,0,0,0,1.1281,1.1287,1.1353,1.1355,1.1301,1.1324,1.1328,1.1345,1.1361,1.1361,1.1338,1.1335,1.1372,1.1377,1.1382,1.1458,1.139,1.1393,1.1395,1.1555,1.1558,1.156,0,0,0,0,0,0,1.1279,1.1287,1.1351,1.132,1.1328,1.1328,1.1348,1.1347,1.1358,1.1363,1.1363,1.135,1.1371,1.1377,1.1425,1.1458,1.1395,1.1398,1.1552,1.1556,1.1559,1.1609,0,0,0,0,0,0,1.1277,1.1287,1.131,1.1321,1.133,1.1393,1.135,1.1349,1.1364,1.136,1.1375,1.1376,1.137,1.142,1.1428,1.1462,1.1401,1.1549,1.1554,1.1558,1.1604,1.1613,1.1621,0,0,0,0,0,1.1274,1.1322,1.1311,1.1319,1.1358,1.1395,1.14,1.1391,1.1367,1.1391,1.1394,1.1375,1.1453,1.1425,1.1434,1.1469,1.1547,1.1553,1.1558,1.16,1.1611,1.1621,0,0,0,0,0,0,1.1315,1.1324,1.1311,1.1364,1.1379,1.1389,1.1418,1.1403,1.1426,1.1421,1.141,1.1414,1.1465,1.1472,1.1441,1.1532,1.1496,1.1504,1.1526,1.1536,1.1545,1.1543,1.1404,0,0,0,0,0,1.1331,1.1359,1.1365,1.1412,1.142,1.1418,1.1434,1.1426,1.1441,1.1447,1.1454,1.1471,1.1499,1.1518,1.1544,1.1604,1.1608,1.1633,1.1642,1.1649,1.1656,1.169,1.1702,1.1578,1.1578,1.1577,0,0,1.1363,1.1371,1.139,1.142,1.1431,1.1462,1.1423,1.1457,1.1481,1.1453,1.1498,1.1504,1.1522,1.1577,1.1601,1.1584,1.1691,1.1655,1.1661,1.1664,1.1697,1.1708,1.1719,1.1581,1.1581,1.158,0,0,1.1438,1.1446,1.1487,1.1498,1.1514,1.1513,1.1523,1.1535,1.1537,1.1583,1.1563,1.1591,1.164,1.1653,1.1667,1.1748,1.1733,1.1757,1.1803,1.1837,1.1846,1.1855,1.1886,1.1897,1.1764,1.1764,1.1764,0,1.1476,1.1521,1.151,1.1545,1.156,1.1536,1.1578,1.159,1.1614,1.1626,1.1606,1.1667,1.1677,1.1736,1.1756,1.1767,1.1779,1.1756,1.1846,1.1854,1.1862,1.1891,1.1903,1.1767,1.1767,1.1766,1.1766,0,1.1568,1.16,1.1631,1.1654,1.1673,1.1712,1.1708,1.1728,1.1719,1.172,1.1768,1.1779,1.1808,1.1821,1.1812,1.1879,1.1868,1.1847,1.1812,1.1877,1.1905,1.1916,1.1771,1.177,1.1769,1.1769,0,0,1.167,1.1688,1.1699,1.1711,1.1727,1.1752,1.1791,1.1818,1.1837,1.1854,1.1888,1.193,1.1911,1.1926,1.1919,1.1948,1.2015,1.1924,1.1924,1.1942,1.2091,1.2108,1.2121,1.2004,1.2006,1.2007,1.209,0,1.1746,1.1812,1.1804,1.1867,1.1897,1.1875,1.1909,1.1924,1.1926,1.1953,1.1956,1.1987,1.1958,1.1968,1.1996,1.2001,1.2045,1.1994,1.2036,1.2038,1.2034,1.2135,1.2152,1.2229,1.21,1.2102,1.2103,0,1.1843,1.1865,1.1932,1.1945,1.1957,1.1988,1.2013,1.2039,1.2056,1.2056,1.2073,1.2062,1.2102,1.2065,1.2121,1.2087,1.2104,1.2109,1.2112,1.2116,1.2075,1.2143,1.2254,1.2266,1.212,1.2119,1.2117,0,1.1913,1.1959,1.2005,1.2015,1.2031,1.2054,1.2062,1.2076,1.2094,1.2117,1.2129,1.2156,1.2171,1.2193,1.219,1.2163,1.2248,1.221,1.225,1.2251,1.227,1.2269,1.2386,1.2279,1.2278,1.2278,1.2278,0,1.2,1.2042,1.2036,1.2065,1.2112,1.2103,1.215,1.2155,1.2169,1.2199,1.2182,1.2211,1.2204,1.2233,1.2231,1.2279,1.2285,1.2288,1.2287,1.229,1.229,1.2302,1.2297,1.2281,1.2281,1.228,1.2279,0,1.2086,1.2083,1.2133,1.2144,1.2148,1.2183,1.2194,1.2221,1.2222,1.2261,1.227,1.2272,1.2306,1.2304,1.2343,1.2341,1.2401,1.2393,1.2395,1.2394,1.2435,1.2432,1.2564,1.2582,1.2462,1.2463,1.2464,0,1.2141,1.2173,1.2189,1.2208,1.2217,1.2248,1.2266,1.2258,1.2278,1.2301,1.2326,1.2358,1.2383,1.2439,1.2445,1.2474,1.2468,1.2513,1.2472,1.2475,1.2471,1.2469,1.2473,1.2521,1.2522,1.2523,1.2524,0,1.2242,1.2239,1.2265,1.2292,1.2314,1.2335,1.2354,1.237,1.2365,1.2389,1.2423,1.2442,1.2482,1.2515,1.2543,1.2553,1.2539,1.2537,1.2548,1.2552,1.2553,1.2555,1.2418,1.2534,1.2533,1.2532,1.2532,1.2531,1.2315,1.2343,1.2359,1.2389,1.2403,1.2421,1.2448,1.2453,1.2481,1.2512,1.2506,1.2545,1.2563,1.26,1.2612,1.2644,1.2628,1.2644,1.2648,1.2652,1.2658,1.2547,1.2649,1.2648,1.2648,1.2648,1.2648,0,1.2416,1.2425,1.2453,1.248,1.2505,1.2488,1.2509,1.2531,1.2565,1.2582,1.2608,1.2648,1.268,1.2689,1.272,1.2743,1.2738,1.2752,1.2751,1.2754,1.2669,1.2657,1.2756,1.2756,1.2756,1.2756,1.2756,1.2756,1.2471,1.2518,1.2518,1.2572,1.2581,1.2619,1.2632,1.265,1.2664,1.2709,1.2736,1.2741,1.2756,1.2788,1.2817,1.2819,1.2832,1.2849,1.2849,1.277,1.2759,1.2749,1.2738,1.2852,1.2852,1.2931,1.2932,1.2932]},{"header":{"parameterUnit":"m.s-1","parameterCategory":1,"la1":30.2991,"la2":30.254,"lo1":-89.0895,"lo2":-89.0444,"dy":0.0017,"dx":0.0017,"nx":28,"ny":28,"refTime":"2025-05-18T21:00:00:Z","depth":0,"parameterNumber":3,"parameterNumberName":"V-component_of_WINDS"},"data":[0,0,0,0,0,0,0,0,0,0,0,0,0,0,0,0,0,0,0,0,0,0,0,0,0,0,0,0,0,0,0,0,0,0,0,0,0,0,0,0,0,0,0,0,0,0,0,0,0,0,0,0,0,0,0,0,0,0,6.1974,6.1975,0,6.2109,6.211,6.2112,6.2136,6.2135,6.2134,6.2133,6.2264,6.2268,6.2272,0,0,0,0,0,0,0,0,0,0,0,0,0,6.173,6.1735,6.1973,6.1975,6.1977,6.2109,6.211,6.2112,6.2137,6.2135,6.2134,6.2133,6.2262,6.2267,6.2273,0,0,0,0,0,0,0,0,0,0,0,0,0,6.1847,6.1736,6.1973,6.2005,6.2009,6.2108,6.211,6.2113,6.2137,6.2135,6.2134,6.2132,6.226,6.2267,6.2273,6.2347,0,0,6.2294,6.2297,0,0,0,0,0,0,0,0,6.1841,6.1856,6.1999,6.2003,6.2008,6.2104,6.2072,6.2191,6.2137,6.2088,6.2133,6.2131,6.2211,6.2222,6.2251,6.2354,6.2359,6.2295,6.2299,6.2302,6.2303,0,0,0,0,0,0,0,6.1833,6.1851,6.2027,6.2001,6.2006,6.2011,6.2025,6.2095,6.2157,6.2092,6.2094,6.2111,6.2213,6.2244,6.2254,6.2361,6.2294,6.23,6.2305,6.2307,6.2533,6.2535,0,0,0,0,0,0,6.182,6.1844,6.2022,6.2031,6.1919,6.2016,6.2033,6.2075,6.2156,6.2167,6.2112,6.2111,6.2233,6.2246,6.2258,6.2352,6.2302,6.2308,6.2312,6.2531,6.2534,6.2536,0,0,0,0,0,0,6.1814,6.1836,6.2017,6.1938,6.1962,6.2022,6.2069,6.2078,6.2109,6.2171,6.2182,6.2132,6.2233,6.2249,6.2326,6.2357,6.2311,6.2317,6.2529,6.2532,6.2535,6.2538,0,0,0,0,0,0,6.1807,6.1834,6.1864,6.1939,6.1966,6.2084,6.2071,6.2082,6.2122,6.2122,6.2193,6.2203,6.2233,6.2316,6.2333,6.2365,6.2322,6.2526,6.253,6.2534,6.2536,6.2541,6.2546,0,0,0,0,0,6.1799,6.1857,6.1865,6.1886,6.2005,6.2086,6.2101,6.2136,6.2124,6.2154,6.2194,6.2201,6.2351,6.2324,6.2343,6.2378,6.2525,6.2529,6.2533,6.2534,6.254,6.2546,0,0,0,0,0,0,6.178,6.1867,6.1877,6.1962,6.2017,6.209,6.2129,6.2142,6.2199,6.2197,6.2235,6.2251,6.2326,6.2359,6.2328,6.2454,6.2437,6.2445,6.243,6.2437,6.2442,6.2432,6.2328,0,0,0,0,0,6.1787,6.1848,6.1919,6.1987,6.2015,6.2067,6.2104,6.2127,6.2184,6.2206,6.2252,6.2305,6.2364,6.2402,6.246,6.2541,6.2557,6.2574,6.2579,6.2583,6.259,6.2636,6.2645,6.255,6.255,6.255,0,0,6.1799,6.1855,6.189,6.1985,6.203,6.2091,6.2086,6.215,6.2195,6.2215,6.2292,6.2327,6.2389,6.2469,6.2506,6.2499,6.262,6.2589,6.2591,6.2596,6.2642,6.265,6.2658,6.2553,6.2553,6.2552,0,0,6.1854,6.1902,6.1965,6.2012,6.2081,6.2116,6.2131,6.2203,6.2229,6.2307,6.2324,6.2377,6.2478,6.2522,6.2557,6.2631,6.264,6.2649,6.2674,6.2719,6.2727,6.2734,6.2761,6.277,6.2655,6.2655,6.2655,0,6.1861,6.1955,6.1995,6.206,6.2101,6.2125,6.2188,6.223,6.2314,6.2341,6.2332,6.2462,6.2505,6.2596,6.2614,6.2642,6.266,6.2641,6.2723,6.273,6.2737,6.2763,6.2773,6.2656,6.2656,6.2656,6.2656,0,6.196,6.2025,6.2067,6.2152,6.2198,6.2261,6.2309,6.235,6.2369,6.2404,6.2484,6.2537,6.2607,6.263,6.2648,6.2724,6.2718,6.2716,6.2698,6.2746,6.2772,6.2782,6.2657,6.2657,6.2657,6.2656,0,0,6.2006,6.2114,6.2129,6.2168,6.2248,6.2298,6.2362,6.2434,6.2469,6.2526,6.258,6.2666,6.2666,6.2706,6.2729,6.2768,6.2825,6.2761,6.2764,6.2772,6.2914,6.2915,6.2926,6.2831,6.2834,6.2835,6.2909,0,6.2071,6.219,6.2228,6.2326,6.2387,6.2412,6.2468,6.2521,6.2557,6.2612,6.2649,6.271,6.2704,6.2729,6.2769,6.281,6.2854,6.2805,6.2881,6.2884,6.2866,6.294,6.2941,6.3008,6.2919,6.292,6.2922,0,6.2162,6.2225,6.233,6.2404,6.2431,6.2481,6.2551,6.2604,6.2665,6.2688,6.2735,6.2755,6.2822,6.2801,6.2894,6.286,6.2893,6.2918,6.2921,6.293,6.2906,6.295,6.303,6.304,6.2938,6.2936,6.2935,0,6.2186,6.2296,6.2374,6.2407,6.2495,6.253,6.2568,6.2628,6.267,6.2729,6.2757,6.2822,6.2858,6.2908,6.2945,6.2926,6.3034,6.3016,6.3054,6.3053,6.3075,6.3073,6.3162,6.3096,6.3096,6.3096,6.3096,0,6.2255,6.2318,6.2387,6.2435,6.2506,6.2549,6.2618,6.2657,6.2711,6.2766,6.279,6.284,6.2886,6.2942,6.2971,6.3044,6.3059,6.3079,6.3086,6.3077,6.3075,6.3099,6.3096,6.3099,6.3098,6.3097,6.3097,0,6.2294,6.2342,6.2429,6.2507,6.2528,6.2577,6.2643,6.2689,6.2726,6.2795,6.2813,6.287,6.2938,6.2981,6.3065,6.3085,6.3164,6.3169,6.3144,6.3148,6.3184,6.318,6.3291,6.3308,6.3231,6.3231,6.3232,0,6.2334,6.2385,6.2469,6.2509,6.2548,6.2612,6.2655,6.2699,6.2743,6.2818,6.2855,6.2925,6.2983,6.309,6.3137,6.3202,6.3209,6.3244,6.3219,6.3209,6.3211,6.3208,6.3213,6.3248,6.3248,6.3249,6.3249,0,6.2402,6.2425,6.2488,6.256,6.2612,6.267,6.2727,6.2758,6.2811,6.2859,6.293,6.2976,6.3064,6.3133,6.3203,6.3239,6.3253,6.3257,6.327,6.3261,6.3245,6.3255,6.3156,6.3254,6.3254,6.3253,6.3253,6.3253,6.2444,6.249,6.2558,6.2628,6.2677,6.2731,6.2779,6.2824,6.2885,6.2962,6.2984,6.3058,6.3119,6.3215,6.3254,6.3311,6.3306,6.3324,6.3328,6.3332,6.3333,6.3236,6.3324,6.3324,6.3323,6.3323,6.3323,0,6.2514,6.2559,6.2623,6.2705,6.276,6.2772,6.2837,6.2881,6.2947,6.3004,6.3062,6.3144,6.3212,6.3266,6.3335,6.337,6.3379,6.3387,6.3385,6.3393,6.3333,6.3316,6.3379,6.3379,6.3379,6.3379,6.3379,6.3379,6.2557,6.2637,6.2667,6.2771,6.2815,6.2891,6.2927,6.2977,6.3023,6.3115,6.3172,6.3208,6.3264,6.3338,6.34,6.3414,6.3438,6.3446,6.3461,6.3403,6.3397,6.3391,6.3376,6.345,6.345,6.3516,6.3517,6.3517]}]]